Bellaire, MI

12:06 AM EST on February 07, 2016 (GMT -0500)
Antrim County

Weather History for KACB - April, 2014

Change the Weather History Date:

Monday, April 21, 2014

  Actual Average (KTVC) Record (KTVC)
Temperature  
Mean Temperature 51 °F 45 °F  
Max Temperature 58 °F 57 °F 85 °F (1985)
Min Temperature 44 °F 34 °F 16 °F (1981)
Degree Days  
Heating Degree Days 14 20  
Month to date heating degree days 501  
Since 1 July heating degree days 6903  
Cooling Degree Days 0 0  
Month to date cooling degree days 0  
Year to date cooling degree days 0  
Growing Degree Days 1 (Base 50)    
Moisture  
Dew Point 47 °F    
Average Humidity 88    
Maximum Humidity 96    
Minimum Humidity 71    
Precipitation  
Precipitation 0.00 in 0.09 in 0.88 in (1969)
Month to date precipitation 1.98  
Year to date precipitation 8.16  
Sea Level Pressure  
Sea Level Pressure 29.86 in    
Wind  
Wind Speed 1 mph (North)    
Max Wind Speed 8 mph    
Max Gust Speed -    
Visibility 6 miles    
Events Fog , Rain    
T = Trace of Precipitation, MM = Missing Value Source: NWS Daily Summary

Daily Weather History Graph

Daily Weather History Graph

Search for Another Location

Airport or City:

Trip Planner

Search our weather history database for the weather conditions in past years. The results will help you decide how hot, cold, wet, or windy it might be!

Date:

Astronomy

Apr. 21, 2014 Rise Set
Actual Time 6:45 AM EDT 8:33 PM EDT
Civil Twilight 6:14 AM EDT 9:05 PM EDT
Nautical Twilight 5:36 AM EDT 9:43 PM EDT
Astronomical Twilight 4:55 AM EDT 10:25 PM EDT
Moon 2:07 AM EDT (4/21) 12:08 PM EDT (4/21)
Length of Visible Light 14h 50m
Length of Day
13h 47m
Waning Gibbous, 58% of the Moon is Illuminated
Apr 21
Waning Gibbous
Apr 22
Last Quarter
Apr 29
New
May 6
First Quarter
May 14
Full

Hourly Weather History & Observations

Time (EDT) Temp. Windchill Dew Point Humidity Pressure Visibility Wind Dir Wind Speed Gust Speed Precip Events Conditions
12:13 AM 50.7 °F - 46.8 °F 86% 30.02 in 10.0 mi Calm Calm - N/A   Overcast
12:34 AM 50.0 °F - 46.4 °F 87% 30.01 in 10.0 mi Calm Calm - N/A   Overcast
12:54 AM 48.6 °F - 44.8 °F 87% 30.01 in 10.0 mi Calm Calm - N/A   Overcast
1:13 AM 48.2 °F - 44.6 °F 87% 30.01 in 10.0 mi Calm Calm - N/A   Overcast
1:34 AM 48.4 °F - 44.4 °F 86% 30.00 in 10.0 mi Calm Calm - N/A   Overcast
1:54 AM 48.7 °F - 44.4 °F 85% 29.99 in 10.0 mi Calm Calm - N/A   Overcast
2:13 AM 48.4 °F - 44.2 °F 86% 29.99 in 10.0 mi Calm Calm - N/A   Overcast
2:34 AM 48.4 °F - 43.5 °F 83% 29.99 in 10.0 mi Calm Calm - N/A   Overcast
2:54 AM 48.7 °F - 43.5 °F 82% 29.98 in 10.0 mi Calm Calm - N/A   Overcast
3:13 AM 49.1 °F - 42.8 °F 79% 29.98 in 10.0 mi Calm Calm - N/A   Overcast
3:34 AM 48.6 °F - 42.8 °F 80% 29.98 in 10.0 mi Calm Calm - N/A   Overcast
3:54 AM 48.4 °F - 42.8 °F 81% 29.97 in 10.0 mi Calm Calm - N/A   Overcast
4:14 AM 48.2 °F - 42.8 °F 82% 29.96 in 10.0 mi Calm Calm - N/A   Overcast
4:34 AM 46.9 °F - 41.9 °F 83% 29.96 in 10.0 mi Calm Calm - N/A   Mostly Cloudy
4:54 AM 46.0 °F - 42.1 °F 86% 29.95 in 10.0 mi Calm Calm - N/A   Overcast
5:14 AM 46.8 °F - 42.6 °F 85% 29.95 in 10.0 mi Calm Calm - N/A   Overcast
5:34 AM 45.7 °F - 42.4 °F 88% 29.94 in 5.0 mi Calm Calm - N/A   Unknown
5:54 AM 45.7 °F - 43.2 °F 91% 29.93 in 7.0 mi Calm Calm - N/A   Overcast
6:14 AM 45.0 °F - 42.8 °F 92% 29.93 in 7.0 mi Calm Calm - N/A   Scattered Clouds
6:34 AM 44.4 °F - 42.6 °F 93% 29.92 in 5.0 mi Calm Calm - N/A   Mostly Cloudy
6:54 AM 44.6 °F - 42.6 °F 93% 29.93 in 7.0 mi Calm Calm - N/A   Overcast
7:14 AM 44.6 °F - 42.1 °F 91% 29.93 in 5.0 mi Calm Calm - N/A   Overcast
7:34 AM 44.8 °F - 42.8 °F 93% 29.92 in 4.0 mi Calm Calm - N/A Rain Light Rain
7:54 AM 45.0 °F 43.5 °F 43.2 °F 93% 29.92 in 3.0 mi NNW 3.5 mph - N/A   Overcast
8:14 AM 45.5 °F - 43.7 °F 93% 29.91 in 5.0 mi Calm Calm - N/A   Overcast
8:34 AM 45.9 °F - 44.1 °F 93% 29.92 in 4.0 mi Calm Calm - N/A   Overcast
8:54 AM 46.6 °F - 44.6 °F 93% 29.92 in 5.0 mi Calm Calm - N/A   Overcast
9:14 AM 47.1 °F - 45.0 °F 92% 29.91 in 5.0 mi Calm Calm - N/A   Light Drizzle
9:54 AM 49.3 °F - 47.3 °F 93% 29.91 in 7.0 mi Calm Calm - N/A   Mostly Cloudy
10:14 AM 50.0 °F - 46.4 °F 87% 29.91 in 7.0 mi Calm Calm - N/A Rain Light Rain
10:34 AM 50.0 °F - 46.6 °F 88% 29.90 in 4.0 mi Calm Calm - N/A Rain Rain
10:54 AM 50.2 °F - 47.5 °F 90% 29.88 in 4.0 mi Calm Calm - N/A Rain Light Rain
11:14 AM 51.1 °F - 48.2 °F 90% 29.86 in 5.0 mi Calm Calm - N/A Rain Light Rain
11:34 AM 51.3 °F - 49.1 °F 92% 29.88 in 4.0 mi WNW 4.6 mph - N/A Rain Rain
11:54 AM 53.2 °F - 48.4 °F 84% 29.86 in 10.0 mi Calm Calm - N/A   Mostly Cloudy
12:14 PM 54.5 °F - 48.7 °F 81% 29.86 in 10.0 mi Calm Calm - N/A   Overcast
12:34 PM 54.7 °F - 47.5 °F 77% 29.86 in 10.0 mi Calm Calm - N/A Rain Light Rain
12:54 PM 53.4 °F - 49.1 °F 85% 29.84 in 7.0 mi Calm Calm - N/A Rain Light Rain
1:14 PM 54.5 °F - 47.3 °F 77% 29.83 in 10.0 mi SSW 3.5 mph - N/A Rain Light Rain
1:35 PM 56.3 °F - 48.6 °F 75% 29.83 in 10.0 mi Calm Calm - N/A   Overcast
1:54 PM 57.7 °F - 48.4 °F 71% 29.83 in 10.0 mi North 4.6 mph - N/A   Overcast
2:14 PM 56.5 °F - 50.2 °F 79% 29.83 in 10.0 mi Calm Calm - N/A   Overcast
2:34 PM 57.4 °F - 49.6 °F 75% 29.82 in 10.0 mi North 6.9 mph - N/A   Overcast
2:54 PM 58.3 °F - 50.4 °F 75% 29.81 in 10.0 mi Calm Calm - N/A   Overcast
3:14 PM 57.9 °F - 49.5 °F 73% 29.82 in 10.0 mi North 4.6 mph - N/A Rain Light Rain
3:34 PM 54.7 °F - 49.1 °F 81% 29.81 in 7.0 mi NNE 8.1 mph - N/A Rain Light Rain
3:54 PM 51.8 °F - 48.0 °F 87% 29.81 in 5.0 mi NW 4.6 mph - N/A Rain Rain
4:14 PM 52.7 °F - 49.3 °F 88% 29.80 in 4.0 mi Calm Calm - N/A Rain Rain
4:34 PM 51.8 °F - 49.1 °F 90% 29.80 in 3.0 mi NNE 5.8 mph - N/A Rain Rain
4:54 PM 51.4 °F - 49.3 °F 92% 29.79 in 3.0 mi Calm Calm - N/A Rain Light Rain
5:14 PM 51.6 °F - 49.3 °F 92% 29.79 in 2.0 mi Calm Calm - N/A Rain Rain
5:34 PM 51.8 °F - 49.5 °F 92% 29.78 in 3.0 mi ENE 3.5 mph - N/A Rain Light Rain
5:54 PM 52.5 °F - 50.5 °F 93% 29.77 in 2.0 mi Calm Calm - N/A   Drizzle
6:14 PM 53.1 °F - 51.1 °F 93% 29.77 in 1.8 mi Calm Calm - N/A Rain Rain
6:34 PM 52.9 °F - 51.1 °F 94% 29.76 in 1.0 mi Calm Calm - N/A Rain Rain
6:54 PM 53.1 °F - 51.4 °F 94% 29.75 in 1.0 mi Calm Calm - N/A Rain Rain
7:15 PM 52.7 °F - 51.1 °F 94% 29.75 in 1.0 mi Calm Calm - N/A   Overcast
7:34 PM 52.7 °F - 50.9 °F 94% 29.74 in 1.0 mi Calm Calm - N/A   Overcast
7:54 PM 52.2 °F - 50.9 °F 95% 29.73 in 1.2 mi Calm Calm - N/A   Overcast
8:15 PM 52.0 °F - 50.5 °F 95% 29.74 in 0.8 mi Calm Calm - N/A   Overcast
8:34 PM 51.8 °F - 50.4 °F 95% 29.74 in 0.5 mi Calm Calm - N/A Fog Fog
8:54 PM 51.4 °F - 50.2 °F 95% 29.74 in 0.8 mi Calm Calm - N/A   Overcast
9:15 PM 50.9 °F - 49.6 °F 95% 29.75 in 0.8 mi Calm Calm - N/A   Overcast
9:34 PM 51.4 °F - 50.2 °F 95% 29.75 in 2.0 mi Calm Calm - N/A   Overcast
9:54 PM 50.5 °F - 49.3 °F 95% 29.75 in 2.0 mi NNE 3.5 mph - N/A   Overcast
10:15 PM 50.9 °F - 49.5 °F 95% 29.73 in 2.5 mi SE 3.5 mph - N/A   Overcast
10:34 PM 50.7 °F - 49.3 °F 95% 29.74 in 1.2 mi Calm Calm - N/A   Overcast
10:54 PM 51.4 °F - 50.2 °F 95% 29.75 in 2.5 mi NW 4.6 mph - N/A Rain Light Rain
11:15 PM 51.1 °F - 50.0 °F 96% 29.75 in 3.0 mi NNW 3.5 mph - N/A   Overcast
11:34 PM 50.4 °F - 49.1 °F 95% 29.75 in 3.0 mi NW 4.6 mph - N/A   Overcast
11:54 PM 50.0 °F - 48.6 °F 95% 29.77 in 3.0 mi NW 4.6 mph - N/A   Overcast